(42964) = 1996 VS39 = 1999 TD147 = 2001 BL27

Discovered at Socorro on 1999-10-07 by LINEAR.

Orbit

Orbit type: Main Belt

Note: WebGL enabled browser required.

epoch2024-03-31.0
epoch JD2460400.5
perihelion date2023-01-15.81669
perihelion JD2459960.31669
argument of perihelion (°)173.46350
ascending node (°)145.16541
inclination (°)4.24518
eccentricity0.0277485
perihelion distance (AU)2.4417875
Tisserand w.r.t. Jupiter3.5
ΔV w.r.t. Earth (km/sec)9.8
semimajor axis (AU)2.5114773
mean anomaly (°)109.00428
mean daily motion (°/day)0.24763380
aphelion distance (AU)2.581
period (years)3.98
P-vector [x]0.75062305
P-vector [y]-0.60951119
P-vector [z]-0.25507088
Q-vector [x]0.65937633
Q-vector [y]0.71572067
Q-vector [z]0.23014512
absolute magnitude15.72
phase slope0.15
uncertainty0
referenceMPEC 2024-E02
observations used1164
oppositions23
arc length (days)11807
first opposition used1991
last opposition used2024
residual rms (arc-secs)0.73
perturbers coarse indicatorM-v
perturbers precise indicator003Ek
first observation date used1991-10-03.0
last observation date used2024-01-30.0
computer nameMPCLINUX
JD of orbit computation2456909.158035
perihelion JD uncertainty (days)3.2659E-04
argument of perihelion uncertainty (°)9.7162E-05
ascending node uncertainty (°)5.5728E-05
inclination uncertainty (°)4.5753E-06
eccentricity uncertainty 4.3016E-08
perihelion distance uncertainty (AU)1.1122E-07
Minimum Orbit Intersection Distances (in AU)
for orbit epoch: 2460400.5, reference: E2024-E02
Mercury2.00307
Venus1.71549
Earth1.42815
Mars0.90943
Jupiter2.47706
Saturn6.48628
Uranus15.8649
Neptune27.3275

Observations

1197 total observations over interval: 1991 10 03.41191 – 2024 01 30.119281
These data are available for download (format description).

Date (UT) J2000 RA J2000 Dec Magn Location Ref
1991 10 03.41191 00 43 20.59 -00 44 42.3   691 – Steward Observatory, Kitt Peak-Spacewatch MPS 25018
1991 10 03.43235 00 43 19.50 -00 44 50.7 19.2 V 691 – Steward Observatory, Kitt Peak-Spacewatch MPS 25018
1992 12 26.44577 09 01 29.79 +14 04 20.6 19.7 V 691 – Steward Observatory, Kitt Peak-Spacewatch MPS 25018
1992 12 26.47192 09 01 29.02 +14 04 23.6   691 – Steward Observatory, Kitt Peak-Spacewatch MPS 25018
1992 12 26.49817 09 01 28.30 +14 04 27.8   691 – Steward Observatory, Kitt Peak-Spacewatch MPS 25018
1995 09 30.31599 00 57 58.56 +00 42 32.2 19.0 V 691 – Steward Observatory, Kitt Peak-Spacewatch MPS 25018
1995 09 30.33817 00 57 57.41 +00 42 22.7   691 – Steward Observatory, Kitt Peak-Spacewatch MPS 25018
1995 09 30.35931 00 57 56.31 +00 42 14.0   691 – Steward Observatory, Kitt Peak-Spacewatch MPS 25018
1996 11 05.48830 08 56 29.32 +14 27 17.6 20.5 V 691 – Steward Observatory, Kitt Peak-Spacewatch MPS 525
1996 11 05.50340 08 56 30.09 +14 27 14.6 20.5 V 691 – Steward Observatory, Kitt Peak-Spacewatch MPS 525
1996 11 05.51857 08 56 30.87 +14 27 11.0 20.4 V 691 – Steward Observatory, Kitt Peak-Spacewatch MPS 525
1996 11 11.46636 09 01 28.55 +14 06 16.3 21.5 V 691 – Steward Observatory, Kitt Peak-Spacewatch MPS 81182
1996 11 11.48799 09 01 29.53 +14 06 12.4 20.6 V 691 – Steward Observatory, Kitt Peak-Spacewatch MPS 81182
1996 11 11.50954 09 01 30.50 +14 06 07.6 20.8 V 691 – Steward Observatory, Kitt Peak-Spacewatch MPS 81182
1997 01 02.39156 09 09 10.73 +13 50 03.8 19.5 V 691 – Steward Observatory, Kitt Peak-Spacewatch MPS 24786
1997 01 02.41509 09 09 09.91 +13 50 08.8 19.5 V 691 – Steward Observatory, Kitt Peak-Spacewatch MPS 24786
1997 01 02.43817 09 09 09.06 +13 50 13.1 19.4 V 691 – Steward Observatory, Kitt Peak-Spacewatch MPS 24786
1999 09 09.41873 01 24 18.34 +04 03 06.9 20.2   704 – Lincoln Laboratory ETS, New Mexico MPS 20866
1999 09 09.43241 01 24 17.89 +04 03 04.7 19.9   704 – Lincoln Laboratory ETS, New Mexico MPS 20866
1999 09 09.44599 01 24 17.60 +04 03 00.3 19.6   704 – Lincoln Laboratory ETS, New Mexico MPS 20866
1999 09 09.45943 01 24 17.20 +04 02 56.8 20.0   704 – Lincoln Laboratory ETS, New Mexico MPS 20866
1999 10 02.26796 01 09 21.62 +01 39 48.8 18.4 R 703 – Catalina Sky Survey MPS 16544
1999 10 02.28026 01 09 20.84 +01 39 43.9 18.5 R 703 – Catalina Sky Survey MPS 16544
1999 10 02.29248 01 09 20.22 +01 39 39.3 18.4 R 703 – Catalina Sky Survey MPS 16544
1999 10 02.30476 01 09 19.63 +01 39 34.2 19.0 R 703 – Catalina Sky Survey MPS 16544
1999 10 07.31466 01 05 05.08 +01 05 36.5 18.7   704 – Lincoln Laboratory ETS, New Mexico MPS 13835
1999 10 07.32510 01 05 04.42 +01 05 32.1 18.5   704 – Lincoln Laboratory ETS, New Mexico MPS 13835
1999 10 07.33583 01 05 03.89 +01 05 27.9 19.2   704 – Lincoln Laboratory ETS, New Mexico MPS 13835
1999 10 07.34638 01 05 03.29 +01 05 23.9 18.9   704 – Lincoln Laboratory ETS, New Mexico MPS 13835
1999 10 09.24399 01 03 25.54 +00 52 45.3 19.0   704 – Lincoln Laboratory ETS, New Mexico MPS 13835
1999 10 09.25948 01 03 24.67 +00 52 40.0 19.2   704 – Lincoln Laboratory ETS, New Mexico MPS 13835
1999 10 09.27488 01 03 23.77 +00 52 34.8 19.6   704 – Lincoln Laboratory ETS, New Mexico MPS 13835
1999 10 09.29047 01 03 23.01 +00 52 28.7 19.5   704 – Lincoln Laboratory ETS, New Mexico MPS 13835
1999 10 09.30591 01 03 22.15 +00 52 21.8 19.5   704 – Lincoln Laboratory ETS, New Mexico MPS 13835
2001 01 20.31063 09 07 35.78 +14 32 19.8 18.8   704 – Lincoln Laboratory ETS, New Mexico MPS 25695
2001 01 20.32554 09 07 34.94 +14 32 23.3 19.7   704 – Lincoln Laboratory ETS, New Mexico MPS 25695
2001 01 20.35538 09 07 33.48 +14 32 31.3 20.1   704 – Lincoln Laboratory ETS, New Mexico MPS 25695
2001 01 21.30054 09 06 43.62 +14 37 34.5 19.1   704 – Lincoln Laboratory ETS, New Mexico MPS 25695
2001 01 21.31413 09 06 42.90 +14 37 38.4 18.6   704 – Lincoln Laboratory ETS, New Mexico MPS 25695
2001 01 21.31569 09 06 42.83 +14 37 37.9 19.1   704 – Lincoln Laboratory ETS, New Mexico MPS 25695
2001 01 21.34449 09 06 41.18 +14 37 47.1 19.4   704 – Lincoln Laboratory ETS, New Mexico MPS 25695
2001 01 21.34604 09 06 41.17 +14 37 47.0 19.3   704 – Lincoln Laboratory ETS, New Mexico MPS 25695
2001 01 21.35963 09 06 40.38 +14 37 51.7 19.0   704 – Lincoln Laboratory ETS, New Mexico MPS 25695
2001 01 21.36120 09 06 40.31 +14 37 52.9 19.1   704 – Lincoln Laboratory ETS, New Mexico MPS 25695
2001 02 02.24708 08 55 31.58 +15 44 27.1 18.3   704 – Lincoln Laboratory ETS, New Mexico MPS 26513
2001 02 02.26189 08 55 30.70 +15 44 32.4 18.5   704 – Lincoln Laboratory ETS, New Mexico MPS 26513
2001 02 02.27672 08 55 29.84 +15 44 38.1 18.5   704 – Lincoln Laboratory ETS, New Mexico MPS 26513
2001 02 02.29155 08 55 29.01 +15 44 42.7 18.2   704 – Lincoln Laboratory ETS, New Mexico MPS 26513
2001 02 02.30637 08 55 28.10 +15 44 48.0 19.3   704 – Lincoln Laboratory ETS, New Mexico MPS 26513
2001 02 16.22607 08 42 44.33 +17 01 03.6 19.1 R 699 – Lowell Observatory-LONEOS MPS 27579
2001 02 16.24789 08 42 43.20 +17 01 09.5   699 – Lowell Observatory-LONEOS MPS 27579
2001 02 16.26974 08 42 42.12 +17 01 16.0   699 – Lowell Observatory-LONEOS MPS 27579
2001 02 16.29159 08 42 40.98 +17 01 21.5   699 – Lowell Observatory-LONEOS MPS 27579
2001 02 22.23873 08 38 04.31 +17 30 03.3 19.1   704 – Lincoln Laboratory ETS, New Mexico MPS 26513
2001 02 22.24984 08 38 03.78 +17 30 05.5 19.1 R 699 – Lowell Observatory-LONEOS MPS 27579
2001 02 22.25277 08 38 03.75 +17 30 07.1 19.1   704 – Lincoln Laboratory ETS, New Mexico MPS 26513
2001 02 22.26151 08 38 03.38 +17 30 09.2   699 – Lowell Observatory-LONEOS MPS 27579
2001 02 22.26677 08 38 03.14 +17 30 11.1 19.2   704 – Lincoln Laboratory ETS, New Mexico MPS 26513
2001 02 22.27322 08 38 02.86 +17 30 12.0   699 – Lowell Observatory-LONEOS MPS 27579
2001 02 22.28151 08 38 02.52 +17 30 13.7 19.2   704 – Lincoln Laboratory ETS, New Mexico MPS 26513
2001 02 22.28493 08 38 02.45 +17 30 15.1   699 – Lowell Observatory-LONEOS MPS 27579
2001 02 22.29566 08 38 01.76 +17 30 18.7 19.2   704 – Lincoln Laboratory ETS, New Mexico MPS 26513
2001 05 16.15031 09 06 40.64 +17 25 37.6 21.3 V 691 – Steward Observatory, Kitt Peak-Spacewatch MPS 30750
2001 05 16.17256 09 06 42.22 +17 25 32.3 21.4 V 691 – Steward Observatory, Kitt Peak-Spacewatch MPS 30750
2001 05 16.19454 09 06 43.69 +17 25 26.1 21.4 V 691 – Steward Observatory, Kitt Peak-Spacewatch MPS 30750
2002 05 09.35357 16 51 41.06 -15 39 41.6 18.4   704 – Lincoln Laboratory ETS, New Mexico MPS 54370
2002 05 09.36565 16 51 40.56 -15 39 38.3 19.4   704 – Lincoln Laboratory ETS, New Mexico MPS 54370
2002 05 09.37787 16 51 40.01 -15 39 37.4 19.2   704 – Lincoln Laboratory ETS, New Mexico MPS 54370
2002 05 09.39004 16 51 39.52 -15 39 36.8 19.1   704 – Lincoln Laboratory ETS, New Mexico MPS 54370
2002 05 09.40211 16 51 39.00 -15 39 34.2 18.8   704 – Lincoln Laboratory ETS, New Mexico MPS 54370
2002 05 21.32657 16 42 04.83 -15 12 05.7 19.6   704 – Lincoln Laboratory ETS, New Mexico MPS 56942
2002 05 21.34172 16 42 03.95 -15 12 02.8 19.1   704 – Lincoln Laboratory ETS, New Mexico MPS 56942
2002 05 21.35688 16 42 03.08 -15 12 00.3 19.4   704 – Lincoln Laboratory ETS, New Mexico MPS 56942
2002 05 21.37205 16 42 02.28 -15 11 59.4 19.0   704 – Lincoln Laboratory ETS, New Mexico MPS 56942
2002 06 02.31268 16 30 48.71 -14 49 42.0 18.4 R 699 – Lowell Observatory-LONEOS MPS 56942
2002 06 02.32457 16 30 48.05 -14 49 40.0   699 – Lowell Observatory-LONEOS MPS 56942
2002 06 02.33644 16 30 47.34 -14 49 40.3   699 – Lowell Observatory-LONEOS MPS 56942
2002 06 02.34828 16 30 46.61 -14 49 38.7   699 – Lowell Observatory-LONEOS MPS 56942
2002 06 05.23704 16 28 01.90 -14 45 29.3 18.6   704 – Lincoln Laboratory ETS, New Mexico MPS 56942
2002 06 05.25034 16 28 01.09 -14 45 28.0 19.0   704 – Lincoln Laboratory ETS, New Mexico MPS 56942
2002 06 05.26352 16 28 00.32 -14 45 26.8 18.8   704 – Lincoln Laboratory ETS, New Mexico MPS 56942
2002 06 05.27756 16 27 59.45 -14 45 25.6 18.9   704 – Lincoln Laboratory ETS, New Mexico MPS 56942
2002 06 05.29222 16 27 58.72 -14 45 25.8 19.4   704 – Lincoln Laboratory ETS, New Mexico MPS 56942
